Retour au catalogue

STARLINK-35407

ActifCommunicationsVLEO
NORAD 66334·PAYLOAD·🇺🇸 United States

Lancé Nov 6, 2025 depuis Cape Canaveral Space Force Station

Loading…

Prochains Passages (prochaines 24 heures)

TLE

FraisSource: CelesTrak SupGP

Époque: Sep 15, 2026, 03:35 UTC

1 66334C 25253R   26258.14979167 -.00060185  00000+0 -21805-2 0  2583
2 66334  43.0028 222.2921 0001325 270.9624  60.3596 15.27599624    12

Suivez STARLINK-35407 en temps réel avec AllMySat

Download on the App Store